Regional & State Weather Roundups


713 
ASUS43 KFSD 151910
RWRSD 
WEATHER ROUNDUP FOR SOUTH DAKOTA
NATIONAL WEATHER SERVICE SIOUX FALLS SD
100 PM CST SAT DEC 15 2018
NOTE: "FAIR" INDICATES FEW OR NO CLOUDS BELOW 12,000 FEET WITH NO
SIGNIFICANT WEATHER AND/OR OBSTRUCTIONS TO VISIBILITY.
SDZ001>005-009-010-012>017-152000-
NORTHWEST AND NORTH CENTRAL SOUTH DAKOTA
  
CITY           SKY/WX    TMP DP  RH WIND       PRES   REMARKS
BUFFALO          N/A     44  27  51 W18       29.81R                  
FAITH            N/A     46  27  47 W16G22    29.81R                  
MOBRIDGE       CLOUDY    43  27  53 S9        29.73F                  
$$
 
SDZ012>016-024>037-041>051-057-063-072>074-152000-
SOUTHWEST AND SOUTH CENTRAL SOUTH DAKOTA
  
CITY           SKY/WX    TMP DP  RH WIND       PRES   REMARKS
RAPID CTY ARPT CLOUDY    58  26  29 NW9       29.84R                  
PIERRE         PTSUNNY   54  25  32 W14       29.80R                  
CUSTER         MOSUNNY   44  17  33 W16G28    29.91F                  
ELLSWORTH AFB  PTSUNNY   57  27  31 NW8       29.84R                  
PHILIP         MOSUNNY   51  28  41 W6        29.82R                  
PINE RIDGE     CLOUDY    44  28  53 W12       29.95R                  
SPEARFISH      FAIR      52  21  30 W17       29.88R                  
WINNER         FAIR      49  25  39 SW22G37   29.84S                  
$$
 
SDZ004>011-016>023-039-040-152000-
NORTHEAST SOUTH DAKOTA
  
CITY           SKY/WX    TMP DP  RH WIND       PRES   REMARKS
ABERDEEN       CLOUDY    43  29  57 S20G29    29.79F                  
WATERTOWN      CLOUDY    42  25  50 S14G24    29.86F                  
BROOKINGS      SUNNY     47  24  40 S17       29.93F                  
SISSETON         N/A     49  24  37 S26G41    29.79F                  
$$
 
SDZ017-020-022-023-036>040-048>070-152000-
SOUTHEAST SOUTH DAKOTA
  
CITY           SKY/WX    TMP DP  RH WIND       PRES   REMARKS
SIOUX FALLS    MOSUNNY   46  24  42 S22G30    29.99F                  
HURON          CLOUDY    44  25  47 S16G29    29.84F                  
CHAMBERLAIN    CLOUDY    51  30  44 SW15G22   29.84S                  
MITCHELL       FAIR      42  26  53 S16G26    29.89F                  
YANKTON        SUNNY     42  28  57 S9        30.00F                  
$$
 
ABBREVIATIONS USED IN REMARKS
   TC - TEMPERATURE IN CELSIUS
  WCI - WIND CHILL INDEX
   HX - HEAT INDEX
  VSB - VISIBILITY
  

714 
ASUS43 KFSD 151910
RWRFSD
WEATHER ROUNDUP FOR SE SOUTH DAKOTA/SW MINNESOTA/NW IOWA
NATIONAL WEATHER SERVICE SIOUX FALLS SD
100 PM CST SAT DEC 15 2018
NOTE: "FAIR" INDICATES FEW OR NO CLOUDS BELOW 12,000 FEET WITH NO
SIGNIFICANT WEATHER AND OR OBSTRUCTIONS TO VISIBILITY.
SDZ038>040-050-052>070-152000-
SOUTHEAST SOUTH DAKOTA
  
CITY           SKY/WX    TMP DP  RH WIND       PRES   REMARKS
BROOKINGS      SUNNY     47  24  40 S17       29.93F                  
CHAMBERLAIN    CLOUDY    51  30  44 SW15G22   29.84S                  
HURON          CLOUDY    44  25  47 S16G29    29.84F                  
MADISON          N/A     45  25  45 S16       29.94F                  
MITCHELL       FAIR      42  26  53 S16G26    29.89F                  
SIOUX FALLS    MOSUNNY   46  24  42 S22G30    29.99F                  
WINNER         FAIR      49  25  39 SW22G37   29.84S                  
YANKTON        SUNNY     42  28  57 S9        30.00F                  
$$
MNZ071-072-080-081-089-090-097-098-152000-
SOUTHWEST MINNESOTA
  
CITY           SKY/WX    TMP DP  RH WIND       PRES   REMARKS
FAIRMONT       SUNNY     36  25  64 S15       30.09F                  
JACKSON        SUNNY     36  27  69 S15       30.06F                  
LUVERNE        SUNNY     41  27  56 S17       30.02F                  
MARSHALL       SUNNY     40  28  62 SW22      29.94F                  
MONTEVIDEO     SUNNY     43  27  52 S9G17     29.96F                  
PIPESTONE      SUNNY     43  30  61 S18       29.97F                  
REDWOOD FALLS  SUNNY     40  28  62 S17       30.01F                  
TRACY          SUNNY     41  28  60 S23G29    29.97F                  
WINDOM         SUNNY     39  27  60 S16       30.02F                  
WORTHINGTON    SUNNY     39  28  64 S23       30.02F                  
$$
IAZ001>003-012>014-020>022-031-032-NEZ013-014-SDZ071-152000-
NORTHWEST IOWA
  
CITY           SKY/WX    TMP DP  RH WIND       PRES   REMARKS
CHEROKEE       SUNNY     38  31  74 S13       30.08F                  
DENISON        SUNNY     39  30  70 S10       30.13F                  
ESTHERVILLE    SUNNY     34  28  79 S14       30.07F WCI  25          
ORANGE CITY    SUNNY     37  32  81 S14       30.05F                  
SHELDON        SUNNY     37  32  81 S18G24    30.03F                  
SIOUX CITY     SUNNY     39  30  70 SE9       30.08F                  
SPENCER        SUNNY     38  28  67 S15       30.07F                  
STORM LAKE     SUNNY     36  30  80 S12       30.08F                  
$$
 
ABBREVIATIONS USED IN REMARKS
   TC - TEMPERATURE IN CELSIUS
  WCI - WIND CHILL INDEX
   HX - HEAT INDEX
  VSB - VISIBILITY